Jackson, TN

8:37 PM CDT on October 21, 2019 (GMT -0500)
McKellar-Sipes Regional

Weather History for KMKL - August, 2019

Change the Weather History Date:

Thursday, August 1, 2019

  Actual Average Record
Temperature  
Mean Temperature 77 °F 79 °F  
Max Temperature 88 °F 91 °F 99 °F (1999)
Min Temperature 65 °F 68 °F 55 °F (1971)
Degree Days  
Heating Degree Days 0 0  
Month to date heating degree days 0 0  
Since 1 June heating degree days 1 2  
Since 1 July heating degree days 0 0  
Cooling Degree Days 12 14  
Month to date cooling degree days 12 14  
Year to date cooling degree days 1044 1017  
Since 1 June cooling degree days 784 802  
Growing Degree Days 26 (Base 50)    
Moisture  
Dew Point 67 °F    
Average Humidity 75    
Maximum Humidity 100    
Minimum Humidity 50    
Precipitation  
Precipitation 0.00 in 0.12 in 1.03 in (2007)
Month to date precipitation 0.00 0.12  
Year to date precipitation 43.32 32.99  
Sea Level Pressure  
Sea Level Pressure 30.06 in    
Wind  
Wind Speed 4 mph (North)    
Max Wind Speed 14 mph    
Max Gust Speed 17 mph    
Visibility 10 miles    
Events      
T = Trace of Precipitation, MM = Missing Value Source: NWS Daily Summary

Daily Weather History Graph

Daily Weather History Graph

Search for Another Location

Airport or City:

Astronomy

Aug. 01, 2019 Rise Set
Actual Time 6:03 AM CDT 7:59 PM CDT
Civil Twilight 5:35 AM CDT 8:27 PM CDT
Nautical Twilight 5:01 AM CDT 9:01 PM CDT
Astronomical Twilight 4:25 AM CDT 9:38 PM CDT
Moon 6:28 AM CDT (8/1) 8:47 PM CDT (8/1)
Length of Visible Light 14h 52m
Length of Day
13h 56m
New Moon, 1% of the Moon is Illuminated
Aug 1
New Moon
Aug 7
First Quarter
Aug 15
Full
Aug 23
Last Quarter
Aug 30
New

Hourly Weather History & Observations

Time (CDT) Temp. Heat Index Dew Point Humidity Pressure Visibility Wind Dir Wind Speed Gust Speed Precip Events Conditions
12:53 AM 66.0 °F - 64.9 °F 96% 30.06 in 5.0 mi SSW 3.5 mph - N/A   Clear
1:53 AM 64.9 °F - 64.0 °F 97% 30.03 in 6.0 mi Calm Calm - N/A   Clear
2:53 AM 66.9 °F - 66.0 °F 97% 30.06 in 10.0 mi NNW 3.5 mph - N/A   Clear
3:53 AM 66.0 °F - 64.9 °F 96% 30.05 in 10.0 mi Calm Calm - N/A   Clear
4:53 AM 68.0 °F - 66.0 °F 93% 30.05 in 10.0 mi Calm Calm - N/A   Clear
5:53 AM 68.0 °F - 66.0 °F 93% 30.07 in 10.0 mi Calm Calm - N/A   Clear
6:53 AM 66.9 °F - 66.0 °F 97% 30.09 in 10.0 mi Calm Calm - N/A   Clear
7:53 AM 72.0 °F - 68.0 °F 87% 30.10 in 10.0 mi NNE 5.8 mph - N/A   Clear
8:53 AM 75.0 °F - 70.0 °F 84% 30.11 in 10.0 mi ENE 3.5 mph - N/A   Clear
10:53 AM 82.9 °F 87.0 °F 70.0 °F 65% 30.11 in 10.0 mi East 5.8 mph - N/A   Clear
11:53 AM 84.9 °F 88.2 °F 68.0 °F 57% 30.11 in 10.0 mi Calm Calm - N/A   Clear
12:53 PM 86.0 °F 89.4 °F 68.0 °F 55% 30.10 in 10.0 mi NNW 5.8 mph - N/A   Scattered Clouds
1:53 PM 86.0 °F 89.4 °F 68.0 °F 55% 30.08 in 10.0 mi Variable 4.6 mph - N/A   Clear
2:53 PM 88.0 °F 90.7 °F 66.9 °F 49% 30.06 in 10.0 mi NNW 9.2 mph - N/A   Clear
3:53 PM 87.1 °F 89.2 °F 66.0 °F 49% 30.04 in 10.0 mi North 11.5 mph - N/A   Partly Cloudy
4:53 PM 86.0 °F 88.8 °F 66.9 °F 53% 30.03 in 10.0 mi North 11.5 mph - N/A   Clear
5:53 PM 84.9 °F 87.1 °F 66.0 °F 53% 30.01 in 9.0 mi North 12.7 mph - N/A   Clear
6:53 PM 82.9 °F 85.0 °F 66.0 °F 56% 30.01 in 10.0 mi North 9.2 mph - N/A   Clear
7:53 PM 75.9 °F - 66.9 °F 74% 30.03 in 10.0 mi North 4.6 mph - N/A   Clear
8:53 PM 71.1 °F - 66.9 °F 87% 30.05 in 10.0 mi Calm Calm - N/A   Clear
9:53 PM 69.1 °F - 66.0 °F 90% 30.06 in 10.0 mi Calm Calm - N/A   Clear
10:53 PM 68.0 °F - 66.0 °F 93% 30.06 in 10.0 mi Calm Calm - N/A   Clear
11:53 PM 66.0 °F - 64.0 °F 93% 30.06 in 10.0 mi Calm Calm - N/A   Clear